Date,TemperatureHighF,TemperatureAvgF,TemperatureLowF,DewpointHighF,DewpointAvgF,DewpointLowF,HumidityHigh,HumidityAvg,HumidityLow,PressureMaxIn,PressureMinIn,WindSpeedMaxMPH,WindSpeedAvgMPH,GustSpeedMaxMPH,PrecipitationSumIn
2013-4-1,49.0,40.0,33.0,45.0,38.0,32.0,97,93,83,30.13,30.03,12,4,23,0.01
2013-4-2,46.0,34.0,25.0,33.0,27.8,24.0,98,79,53,30.26,30.12,11,4,15,0.00
2013-4-3,51.0,34.7,21.0,31.0,23.2,17.0,84,64,44,30.42,30.25,12,2,14,0.00
2013-4-4,35.0,29.8,25.0,33.0,25.3,17.0,100,84,58,30.40,30.05,25,10,29,0.01
2013-4-5,47.0,35.5,30.0,41.0,33.7,29.0,98,94,79,30.23,30.01,7,3,13,0.17
2013-4-6,54.0,43.5,33.0,42.0,35.5,30.0,95,74,56,30.40,30.23,14,5,17,0.00
2013-4-7,58.0,47.4,36.0,46.0,40.2,34.0,93,77,59,30.41,30.34,10,5,15,0.00
2013-4-8,64.0,53.1,44.0,52.0,46.7,41.0,93,80,61,30.40,30.33,13,4,14,0.00
2013-4-9,71.0,58.5,48.0,55.0,51.0,46.0,96,77,51,30.50,30.39,9,3,14,0.00
2013-4-10,74.0,62.0,51.0,57.0,52.9,48.0,93,74,50,30.45,30.30,9,4,15,0.00
2013-4-11,65.0,58.1,53.0,56.0,53.2,50.0,97,84,67,30.30,30.03,11,6,19,0.45
2013-4-12,62.0,51.8,39.0,55.0,48.2,37.0,95,88,61,30.09,29.92,17,5,25,1.64
2013-4-13,61.0,45.9,35.0,43.0,37.9,34.0,97,76,47,30.29,30.05,11,4,16,0.00
2013-4-14,60.0,50.2,40.0,45.0,39.1,33.0,99,67,50,30.35,30.23,15,5,24,0.01
2013-4-15,50.0,46.5,43.0,48.0,44.9,42.0,99,95,92,30.46,30.21,21,7,27,0.13
2013-4-16,65.0,55.3,48.0,59.0,51.2,45.0,96,87,70,30.57,30.46,10,4,14,0.01
2013-4-17,61.0,55.0,51.0,57.0,53.4,50.0,97,94,80,30.58,30.47,8,3,12,0.32
2013-4-18,60.0,55.2,53.0,55.0,53.2,51.0,97,93,81,30.48,30.28,19,8,26,0.00
2013-4-19,55.0,50.3,34.0,54.0,47.4,32.0,96,90,83,30.28,30.01,23,9,31,0.79
2013-4-20,49.0,36.0,25.0,40.0,32.0,24.0,97,86,64,30.47,30.04,8,4,21,0.00
2013-4-21,48.0,39.1,33.0,37.0,32.1,27.0,91,76,61,30.61,30.46,19,8,25,0.00
2013-4-22,53.0,39.9,31.0,40.0,35.0,29.0,99,83,62,30.58,30.46,20,8,22,0.00
2013-4-23,60.0,46.6,33.0,47.0,39.8,28.0,96,78,62,30.47,30.39,15,5,18,0.00
2013-4-24,63.0,51.3,42.0,53.0,47.8,41.0,97,88,68,30.40,30.29,11,4,16,0.04
2013-4-25,58.0,43.1,30.0,44.0,34.4,28.0,98,76,32,30.55,30.30,7,2,18,0.01
2013-4-26,56.0,44.9,34.0,41.0,34.9,28.0,86,69,51,30.63,30.52,9,3,14,0.00
2013-4-27,49.0,44.8,43.0,46.0,42.4,39.0,98,91,77,30.62,30.47,9,3,15,0.17
2013-4-28,47.0,42.8,39.0,45.0,40.5,-99.9,97,95,93,30.47,30.28,17,5,21,1.10
2013-4-29,59.0,50.2,45.0,54.0,47.8,43.0,97,91,79,30.31,30.24,7,3,10,0.05
2013-4-30,60.0,52.1,49.0,55.0,49.7,47.0,97,92,81,30.47,30.28,12,5,16,0.10